Regional Weather Roundup
Issued by NWS Sioux Falls, SD

Home | Current Version | Previous Version | Graphics & Text | Print | Product List | Glossary Off
Versions: 1 2 3 4 5 6 7 8 9 10 11 12 13 14 15 16 17 18 19 20 21 22 23 24 25 26 27 28 29 30 31 32 33 34 35 36 37 38 39 40 41 42 43 44 45 46 47 48 49 50

000
ASUS43 KFSD 062210
RWRFSD

WEATHER ROUNDUP FOR SE SOUTH DAKOTA/SW MINNESOTA/NW IOWA
NATIONAL WEATHER SERVICE SIOUX FALLS SD
400 PM CST FRI MAR 06 2015

NOTE: "FAIR" INDICATES FEW OR NO CLOUDS BELOW 12,000 FEET WITH NO
SIGNIFICANT WEATHER AND OR OBSTRUCTIONS TO VISIBILITY.


SDZ038>040-050-052>070-062300-
SOUTHEAST SOUTH DAKOTA

CITY           SKY/WX    TMP DP  RH WIND       PRES   REMARKS
CHAMBERLAIN    SUNNY     53  22  30 W9        30.08S
HURON          SUNNY     43  22  43 CALM      30.11S
MADISON        FAIR      39  23  52 W10       30.09S
MITCHELL       MOSUNNY   49  20  31 VRB5      30.10F
SIOUX FALLS    PTSUNNY   45  23  42 NW9       30.10S
WINNER         FAIR      57  20  23 W15       30.08F
YANKTON        MOSUNNY   54  19  26 NW9       30.11F
$$

MNZ071-072-080-081-089-090-097-098-062300-
SOUTHWEST MINNESOTA

CITY           SKY/WX    TMP DP  RH WIND       PRES   REMARKS
FAIRMONT       PTSUNNY   39  25  56 NW12      30.07S
JACKSON        PTSUNNY   41  25  52 NW9       30.08S
LUVERNE        CLOUDY    43  27  52 NW9       30.10F
MARSHALL       MOSUNNY   37  19  48 NW10      30.11S
MONTEVIDEO     SUNNY     37  21  52 N7        30.11R
PIPESTONE      PTSUNNY   37  23  56 W8        30.08S
REDWOOD FALLS  PTSUNNY   37  21  52 NW10      30.09R
TRACY          PTSUNNY   39  23  53 NW13      30.09S
WINDOM         PTSUNNY   37  25  60 NW10      30.09R
WORTHINGTON    PTSUNNY   37  25  60 W13       30.11S
$$

IAZ001>003-012>014-020>022-031-032-NEZ013-014-SDZ071-062300-
NORTHWEST IOWA

CITY           SKY/WX    TMP DP  RH WIND       PRES   REMARKS
CHEROKEE       PTSUNNY   50  26  38 NW8       30.09S
DENISON        MOSUNNY   57  23  26 NW18G26   30.07S
ESTHERVILLE    PTSUNNY   42  29  59 W10       30.07S
LE MARS        PTSUNNY   52  23  32 NW13      30.11S
ORANGE CITY    CLOUDY    52  21  30 NW12      30.10R
SHELDON        CLOUDY    45  25  45 NW13      30.09R
SIOUX CITY     MOSUNNY   57  22  25 NW15      30.10R
SPENCER        PTSUNNY   46  27  47 NW13      30.09R
STORM LAKE     PTSUNNY   50  25  37 NW14      30.09R
$$

ABBREVIATIONS USED IN REMARKS
   TC - TEMPERATURE IN CELSIUS
  WCI - WIND CHILL INDEX
   HX - HEAT INDEX
  VSB - VISIBILITY



USA.gov is the U.S. government's official web portal to all federal, state and local government web resources and services.